TimeCDT,TemperatureF,Dew PointF,Humidity,Sea Level PressureIn,VisibilityMPH,Wind Direction,Wind SpeedMPH,Gust SpeedMPH,PrecipitationIn,Events,Conditions,WindDirDegrees,DateUTC
12:52 AM,10.9,8.1,88,30.35,10.0,NW,3.5,-,N/A,,Clear,320,2013-03-10 06:52:00
1:52 AM,9.0,7.0,92,30.37,10.0,NW,10.4,-,N/A,,Clear,320,2013-03-10 07:52:00
3:52 AM,7.0,6.1,96,30.37,8.0,SSE,4.6,-,N/A,,Clear,150,2013-03-10 08:52:00
4:52 AM,1.9,-0.0,91,30.37,7.0,Calm,Calm,-,N/A,,Clear,0,2013-03-10 09:52:00
5:52 AM,1.9,1.0,96,30.38,8.0,Calm,Calm,-,N/A,,Clear,0,2013-03-10 10:52:00
6:52 AM,3.2,1.4,92,30.26,6.0,Calm,Calm,-,N/A,,Clear,0,2013-03-10 11:52:00
7:52 AM,1.9,-0.0,91,30.42,7.0,NW,3.5,-,N/A,,Clear,310,2013-03-10 12:52:00
8:52 AM,1.0,-0.9,91,30.42,4.0,Calm,Calm,-,N/A,,Clear,0,2013-03-10 13:52:00
9:52 AM,5.0,3.9,95,30.41,5.0,Calm,Calm,-,N/A,,Clear,0,2013-03-10 14:52:00
10:52 AM,10.0,7.0,87,30.40,5.0,Calm,Calm,-,N/A,,Clear,0,2013-03-10 15:52:00
11:52 AM,12.9,10.9,92,30.38,6.0,South,4.6,-,N/A,,Clear,190,2013-03-10 16:52:00
12:52 PM,17.1,12.0,81,30.37,8.0,WSW,3.5,-,N/A,,Clear,250,2013-03-10 17:52:00
1:52 PM,21.0,15.1,78,30.33,9.0,SSW,3.5,-,N/A,,Clear,200,2013-03-10 18:52:00
2:52 PM,23.0,16.0,74,30.30,10.0,SSW,4.6,-,N/A,,Clear,210,2013-03-10 19:52:00
3:52 PM,25.0,18.0,75,30.26,10.0,South,4.6,-,N/A,,Clear,190,2013-03-10 20:52:00
4:52 PM,27.0,18.0,69,30.24,10.0,South,3.5,-,N/A,,Clear,190,2013-03-10 21:52:00
5:52 PM,27.0,19.0,72,30.20,10.0,South,6.9,-,N/A,,Clear,190,2013-03-10 22:52:00
6:52 PM,27.0,19.0,72,30.18,10.0,South,5.8,-,N/A,,Clear,170,2013-03-10 23:52:00
7:52 PM,25.0,18.0,75,30.17,10.0,SSE,4.6,-,N/A,,Clear,160,2013-03-11 00:52:00
8:52 PM,24.1,18.0,77,30.14,10.0,South,4.6,-,N/A,,Clear,170,2013-03-11 01:52:00
9:52 PM,24.1,18.0,77,30.11,10.0,SSE,3.5,-,N/A,,Clear,160,2013-03-11 02:52:00
10:52 PM,24.8,17.6,74,29.96,10.0,Calm,Calm,-,N/A,,Clear,0,2013-03-11 03:52:00
11:52 PM,24.1,18.0,77,30.04,10.0,Calm,Calm,-,N/A,,Clear,0,2013-03-11 04:52:00
12:52 AM,25.0,19.0,78,29.99,10.0,South,3.5,-,N/A,,Mostly Cloudy,170,2013-03-11 05:52:00